Simultaneous Nadir Overpasses (SNOs) Predictions

Prediction of SNOs between GOES-14 and NPP Satellite Orbit:

Table of predicted SNOs for the next 14.0 days since TLE Epoch: 9/26/2025
Index Date Time (GOES-14) GOES-14 Lat,Lon NPP Lat,Lon Distance(km) Time Diff (sec)
1 09/27/2025 20:24:42 0.88,-108.39 1.69,-104.72 417.35 80
2 09/29/2025 08:49:11 -0.82,-108.41 -0.46,-109.98 179.13 80
3 09/30/2025 08:27:48 -0.86,-108.41 -1.51,-105.46 335.66 80
4 10/01/2025 20:52:26 0.79,-108.39 0.24,-110.75 270.00 80
5 10/02/2025 20:31:03 0.84,-108.39 1.30,-106.23 245.50 80
6 10/04/2025 08:55:32 -0.76,-108.43 -0.07,-111.50 349.65 80
7 10/05/2025 08:34:10 -0.81,-108.43 -1.13,-106.98 165.20 80
8 10/06/2025 20:58:46 0.72,-108.39 -0.17,-112.26 440.83 80
9 10/07/2025 20:37:24 0.77,-108.40 0.89,-107.74 74.60 80
10 10/10/2025 08:40:35 -0.73,-108.43 -0.73,-108.48 5.66 76
